Time,TemperatureF,DewpointF,PressureIn,WindDirection,WindDirectionDegrees,WindSpeedMPH,WindSpeedGustMPH,Humidity,HourlyPrecipIn,Conditions,Clouds,dailyrainin,SoftwareType,DateUTC
2013-01-20 00:02:00,14.0,11.0,-100.00,ENE,75,0.0,0.0,89,0.00,,,-99.99,,2013-01-20 07:02:00,
2013-01-20 00:11:00,13.0,11.0,-100.00,ENE,60,1.0,2.0,89,0.00,,,-99.99,,2013-01-20 07:11:00,
2013-01-20 00:22:00,13.0,11.0,-100.00,NE,45,0.0,1.0,90,0.00,,,-99.99,,2013-01-20 07:22:00,
2013-01-20 00:32:00,14.0,11.0,-100.00,NW,310,0.0,3.0,90,0.00,,,-99.99,,2013-01-20 07:32:00,
2013-01-20 00:42:00,13.0,11.0,-100.00,ENE,65,0.0,1.0,90,0.00,,,-99.99,,2013-01-20 07:42:00,
2013-01-20 00:52:00,12.0,10.0,-100.00,ENE,65,1.0,1.0,90,0.00,,,-99.99,,2013-01-20 07:52:00,
2013-01-20 01:02:00,12.0,10.0,-100.00,NW,325,0.0,1.0,91,0.00,,,-99.99,,2013-01-20 08:02:00,
2013-01-20 01:12:00,12.0,10.0,-100.00,NW,325,0.0,1.0,91,0.00,,,-99.99,,2013-01-20 08:12:00,
2013-01-20 01:22:00,12.0,10.0,-100.00,NW,325,0.0,0.0,91,0.00,,,-99.99,,2013-01-20 08:22:00,
2013-01-20 01:32:00,11.0,10.0,-100.00,NNW,335,0.0,0.0,91,0.00,,,-99.99,,2013-01-20 08:32:00,
2013-01-20 01:42:00,12.0,10.0,-100.00,East,95,0.0,1.0,91,0.00,,,-99.99,,2013-01-20 08:42:00,
2013-01-20 01:52:00,12.0,10.0,-100.00,West,280,0.0,1.0,91,0.00,,,-99.99,,2013-01-20 08:52:00,
2013-01-20 02:02:00,11.0,9.0,-100.00,NNE,30,0.0,0.0,91,0.00,,,-99.99,,2013-01-20 09:02:00,
2013-01-20 02:12:00,11.0,9.0,-100.00,NNE,30,0.0,1.0,92,0.00,,,-99.99,,2013-01-20 09:12:00,
2013-01-20 02:22:00,11.0,9.0,-100.00,NNE,30,1.0,2.0,92,0.00,,,-99.99,,2013-01-20 09:22:00,
2013-01-20 02:33:00,11.0,9.0,-100.00,SE,140,0.0,1.0,92,0.00,,,-99.99,,2013-01-20 09:33:00,
2013-01-20 02:42:00,11.0,9.0,-100.00,SE,125,0.0,1.0,92,0.00,,,-99.99,,2013-01-20 09:42:00,
2013-01-20 02:52:00,10.0,9.0,-100.00,SE,125,0.0,0.0,92,0.00,,,-99.99,,2013-01-20 09:52:00,
2013-01-20 03:02:00,10.0,8.0,-100.00,ESE,115,0.0,1.0,92,0.00,,,-99.99,,2013-01-20 10:02:00,
2013-01-20 03:11:00,11.0,9.0,-100.00,ESE,115,0.0,0.0,92,0.00,,,-99.99,,2013-01-20 10:11:00,
2013-01-20 03:22:00,10.0,9.0,-100.00,ESE,115,0.0,0.0,92,0.00,,,-99.99,,2013-01-20 10:22:00,
2013-01-20 03:32:00,10.0,8.0,-100.00,ESE,115,0.0,0.0,92,0.00,,,-99.99,,2013-01-20 10:32:00,
2013-01-20 03:42:00,10.0,8.0,-100.00,NE,45,1.0,2.0,92,0.00,,,-99.99,,2013-01-20 10:42:00,
2013-01-20 03:52:00,10.0,8.0,-100.00,East,95,0.0,1.0,92,0.00,,,-99.99,,2013-01-20 10:52:00,
2013-01-20 04:02:00,10.0,8.0,-100.00,NNE,15,0.0,1.0,93,0.00,,,-99.99,,2013-01-20 11:02:00,
2013-01-20 04:12:00,9.0,8.0,-100.00,NNW,330,0.0,2.0,93,0.00,,,-99.99,,2013-01-20 11:12:00,
2013-01-20 04:22:00,10.0,8.0,-100.00,SSE,160,0.0,1.0,93,0.00,,,-99.99,,2013-01-20 11:22:00,
2013-01-20 04:32:00,10.0,8.0,-100.00,South,175,0.0,1.0,93,0.00,,,-99.99,,2013-01-20 11:32:00,
2013-01-20 04:42:00,10.0,8.0,-100.00,NNE,20,0.0,1.0,93,0.00,,,-99.99,,2013-01-20 11:42:00,
2013-01-20 04:53:00,10.0,8.0,-100.00,NNE,20,0.0,0.0,93,0.00,,,-99.99,,2013-01-20 11:53:00,
2013-01-20 05:02:00,9.0,8.0,-100.00,ENE,65,0.0,1.0,93,0.00,,,-99.99,,2013-01-20 12:02:00,
2013-01-20 05:11:00,10.0,9.0,-100.00,NW,315,0.0,3.0,93,0.00,,,-99.99,,2013-01-20 12:11:00,
2013-01-20 05:22:00,10.0,8.0,-100.00,NNE,25,0.0,1.0,93,0.00,,,-99.99,,2013-01-20 12:22:00,
2013-01-20 05:32:00,10.0,8.0,-100.00,North,0,1.0,1.0,93,0.00,,,-99.99,,2013-01-20 12:32:00,
2013-01-20 05:42:00,9.0,8.0,-100.00,NE,35,0.0,0.0,93,0.00,,,-99.99,,2013-01-20 12:42:00,
2013-01-20 05:52:00,9.0,8.0,-100.00,East,90,0.0,2.0,93,0.00,,,-99.99,,2013-01-20 12:52:00,
2013-01-20 06:02:00,10.0,9.0,-100.00,NNW,330,0.0,4.0,93,0.00,,,-99.99,,2013-01-20 13:02:00,
2013-01-20 06:12:00,9.0,8.0,-100.00,SW,235,0.0,1.0,93,0.00,,,-99.99,,2013-01-20 13:12:00,
2013-01-20 06:23:00,9.0,7.0,-100.00,SW,215,1.0,2.0,93,0.00,,,-99.99,,2013-01-20 13:23:00,
2013-01-20 06:32:00,8.0,7.0,-100.00,SE,125,0.0,2.0,93,0.00,,,-99.99,,2013-01-20 13:32:00,
2013-01-20 06:42:00,8.0,7.0,-100.00,ESE,115,0.0,3.0,93,0.00,,,-99.99,,2013-01-20 13:42:00,
2013-01-20 06:52:00,8.0,7.0,-100.00,ENE,60,0.0,3.0,93,0.00,,,-99.99,,2013-01-20 13:52:00,
2013-01-20 07:02:00,8.0,7.0,-100.00,SSW,200,0.0,2.0,93,0.00,,,-99.99,,2013-01-20 14:02:00,
2013-01-20 07:12:00,9.0,7.0,-100.00,WNW,295,0.0,3.0,93,0.00,,,-99.99,,2013-01-20 14:12:00,
2013-01-20 07:22:00,10.0,8.0,-100.00,WNW,295,0.0,6.0,93,0.00,,,-99.99,,2013-01-20 14:22:00,
2013-01-20 07:32:00,9.0,8.0,-100.00,ESE,110,0.0,2.0,93,0.00,,,-99.99,,2013-01-20 14:32:00,
2013-01-20 07:42:00,9.0,7.0,-100.00,NNE,25,0.0,3.0,93,0.00,,,-99.99,,2013-01-20 14:42:00,
2013-01-20 07:52:00,9.0,7.0,-100.00,WSW,245,1.0,3.0,93,0.00,,,-99.99,,2013-01-20 14:52:00,
2013-01-20 08:02:00,9.0,7.0,-100.00,NW,315,2.0,4.0,93,0.00,,,-99.99,,2013-01-20 15:02:00,
2013-01-20 08:12:00,8.0,7.0,-100.00,NNW,340,1.0,4.0,93,0.00,,,-99.99,,2013-01-20 15:12:00,
2013-01-20 08:22:00,8.0,6.0,-100.00,East,80,0.0,4.0,93,0.00,,,-99.99,,2013-01-20 15:22:00,
2013-01-20 08:32:00,8.0,7.0,-100.00,SE,135,0.0,2.0,93,0.00,,,-99.99,,2013-01-20 15:32:00,
2013-01-20 08:42:00,8.0,7.0,-100.00,East,90,1.0,2.0,93,0.00,,,-99.99,,2013-01-20 15:42:00,
2013-01-20 08:52:00,10.0,8.0,-100.00,NNW,335,3.0,6.0,93,0.00,,,-99.99,,2013-01-20 15:52:00,
2013-01-20 09:02:00,9.0,8.0,-100.00,NE,45,0.0,3.0,93,0.00,,,-99.99,,2013-01-20 16:02:00,
2013-01-20 09:11:00,12.0,11.0,-100.00,NNW,335,2.0,5.0,93,0.00,,,-99.99,,2013-01-20 16:11:00,
2013-01-20 09:22:00,14.0,12.0,-100.00,SE,145,0.0,3.0,92,0.00,,,-99.99,,2013-01-20 16:22:00,
2013-01-20 09:33:00,12.0,10.0,-100.00,WSW,255,1.0,4.0,91,0.00,,,-99.99,,2013-01-20 16:33:00,
2013-01-20 09:42:00,13.0,11.0,-100.00,WNW,290,1.0,4.0,90,0.00,,,-99.99,,2013-01-20 16:42:00,
2013-01-20 09:53:00,13.0,11.0,-100.00,West,275,1.0,4.0,89,0.00,,,-99.99,,2013-01-20 16:53:00,
2013-01-20 10:02:00,13.0,10.0,-100.00,NNW,340,1.0,4.0,87,0.00,,,-99.99,,2013-01-20 17:02:00,
2013-01-20 10:12:00,15.0,11.0,-100.00,SW,215,1.0,4.0,84,0.00,,,-99.99,,2013-01-20 17:12:00,
2013-01-20 10:22:00,15.0,11.0,-100.00,West,280,1.0,2.0,83,0.00,,,-99.99,,2013-01-20 17:22:00,
2013-01-20 10:32:00,17.0,12.0,-100.00,NW,325,3.0,6.0,81,0.00,,,-99.99,,2013-01-20 17:32:00,
2013-01-20 10:42:00,19.0,14.0,-100.00,South,170,0.0,4.0,79,0.00,,,-99.99,,2013-01-20 17:42:00,
2013-01-20 10:52:00,20.0,13.0,-100.00,East,90,1.0,3.0,74,0.00,,,-99.99,,2013-01-20 17:52:00,
2013-01-20 11:02:00,21.0,13.0,-100.00,North,5,1.0,3.0,70,0.00,,,-99.99,,2013-01-20 18:02:00,
2013-01-20 11:12:00,22.0,12.0,-100.00,North,0,2.0,5.0,66,0.00,,,-99.99,,2013-01-20 18:12:00,
2013-01-20 11:22:00,22.0,12.0,-100.00,NW,325,1.0,7.0,63,0.00,,,-99.99,,2013-01-20 18:22:00,
2013-01-20 11:33:00,23.0,11.0,-100.00,West,275,2.0,4.0,61,0.00,,,-99.99,,2013-01-20 18:33:00,
2013-01-20 11:42:00,24.0,12.0,-100.00,SW,230,0.0,3.0,59,0.00,,,-99.99,,2013-01-20 18:42:00,
2013-01-20 11:52:00,27.0,13.0,-100.00,SSW,210,0.0,2.0,56,0.00,,,-99.99,,2013-01-20 18:52:00,
2013-01-20 12:02:00,29.0,14.0,-100.00,South,185,1.0,2.0,52,0.00,,,-99.99,,2013-01-20 19:02:00,
2013-01-20 12:11:00,31.0,13.0,-100.00,SW,225,1.0,2.0,48,0.00,,,-99.99,,2013-01-20 19:11:00,
2013-01-20 12:22:00,33.0,13.0,-100.00,SW,220,0.0,3.0,43,0.00,,,-99.99,,2013-01-20 19:22:00,
2013-01-20 12:33:00,33.0,12.0,-100.00,SSE,165,1.0,2.0,40,0.00,,,-99.99,,2013-01-20 19:33:00,
2013-01-20 12:42:00,35.0,12.0,-100.00,South,185,0.0,2.0,38,0.00,,,-99.99,,2013-01-20 19:42:00,
2013-01-20 12:52:00,37.0,12.0,-100.00,SSW,195,2.0,4.0,36,0.00,,,-99.99,,2013-01-20 19:52:00,
2013-01-20 13:02:00,37.0,11.0,-100.00,SE,140,1.0,2.0,34,0.00,,,-99.99,,2013-01-20 20:02:00,
2013-01-20 13:12:00,36.0,10.0,-100.00,SW,220,0.0,2.0,32,0.00,,,-99.99,,2013-01-20 20:12:00,
2013-01-20 13:22:00,37.0,10.0,-100.00,SSE,155,1.0,2.0,32,0.00,,,-99.99,,2013-01-20 20:22:00,
2013-01-20 13:33:00,37.0,11.0,-100.00,SSE,160,0.0,2.0,32,0.00,,,-99.99,,2013-01-20 20:33:00,
2013-01-20 13:42:00,38.0,11.0,-100.00,SSE,160,1.0,2.0,31,0.00,,,-99.99,,2013-01-20 20:42:00,
2013-01-20 13:52:00,39.0,12.0,-100.00,SE,145,0.0,2.0,32,0.00,,,-99.99,,2013-01-20 20:52:00,
2013-01-20 14:03:00,40.0,11.0,-100.00,SW,225,0.0,2.0,30,0.00,,,-99.99,,2013-01-20 21:03:00,
2013-01-20 14:12:00,41.0,12.0,-100.00,SSW,200,1.0,2.0,30,0.00,,,-99.99,,2013-01-20 21:12:00,
2013-01-20 14:22:00,41.0,11.0,-100.00,SW,235,0.0,2.0,29,0.00,,,-99.99,,2013-01-20 21:22:00,
2013-01-20 14:33:00,42.0,12.0,-100.00,SW,225,1.0,2.0,28,0.00,,,-99.99,,2013-01-20 21:33:00,
2013-01-20 14:42:00,43.0,12.0,-100.00,WSW,240,0.0,2.0,28,0.00,,,-99.99,,2013-01-20 21:42:00,
2013-01-20 15:02:00,41.0,11.0,-100.00,SW,225,0.0,1.0,28,0.00,,,-99.99,,2013-01-20 22:02:00,
2013-01-20 15:12:00,38.0,9.0,-100.00,WNW,285,1.0,3.0,29,0.00,,,-99.99,,2013-01-20 22:12:00,
2013-01-20 15:22:00,37.0,9.0,-100.00,SW,220,2.0,2.0,30,0.00,,,-99.99,,2013-01-20 22:22:00,
2013-01-20 15:32:00,35.0,9.0,-100.00,SW,225,0.0,1.0,32,0.00,,,-99.99,,2013-01-20 22:32:00,
2013-01-20 15:42:00,34.0,9.0,-100.00,NW,320,1.0,2.0,34,0.00,,,-99.99,,2013-01-20 22:42:00,
2013-01-20 15:52:00,33.0,9.0,-100.00,NW,315,1.0,2.0,36,0.00,,,-99.99,,2013-01-20 22:52:00,
2013-01-20 16:03:00,33.0,10.0,-100.00,SW,215,0.0,2.0,37,0.00,,,-99.99,,2013-01-20 23:03:00,
2013-01-20 16:12:00,33.0,11.0,-100.00,WNW,295,0.0,1.0,38,0.00,,,-99.99,,2013-01-20 23:12:00,
2013-01-20 16:22:00,33.0,11.0,-100.00,NNW,345,0.0,1.0,39,0.00,,,-99.99,,2013-01-20 23:22:00,
2013-01-20 16:33:00,31.0,11.0,-100.00,SSW,210,0.0,1.0,41,0.00,,,-99.99,,2013-01-20 23:33:00,
2013-01-20 16:42:00,31.0,11.0,-100.00,NE,35,0.0,4.0,43,0.00,,,-99.99,,2013-01-20 23:42:00,
2013-01-20 16:52:00,31.0,12.0,-100.00,ENE,75,1.0,3.0,43,0.00,,,-99.99,,2013-01-20 23:52:00,
2013-01-20 17:02:00,31.0,12.0,-100.00,WNW,300,0.0,3.0,44,0.00,,,-99.99,,2013-01-21 00:02:00,
2013-01-20 17:12:00,30.0,11.0,-100.00,SW,215,0.0,0.0,45,0.00,,,-99.99,,2013-01-21 00:12:00,
2013-01-20 17:22:00,30.0,12.0,-100.00,NNW,340,1.0,3.0,47,0.00,,,-99.99,,2013-01-21 00:22:00,
2013-01-20 17:32:00,29.0,12.0,-100.00,SW,220,0.0,4.0,49,0.00,,,-99.99,,2013-01-21 00:32:00,
2013-01-20 17:42:00,29.0,12.0,-100.00,West,275,0.0,4.0,49,0.00,,,-99.99,,2013-01-21 00:42:00,
2013-01-20 17:53:00,27.0,11.0,-100.00,WNW,290,1.0,4.0,51,0.00,,,-99.99,,2013-01-21 00:53:00,
2013-01-20 18:02:00,26.0,12.0,-100.00,NNW,335,1.0,2.0,53,0.00,,,-99.99,,2013-01-21 01:02:00,
2013-01-20 18:12:00,25.0,12.0,-100.00,ENE,65,0.0,1.0,55,0.00,,,-99.99,,2013-01-21 01:12:00,
2013-01-20 18:22:00,25.0,11.0,-100.00,North,0,0.0,2.0,56,0.00,,,-99.99,,2013-01-21 01:22:00,
2013-01-20 18:32:00,25.0,12.0,-100.00,South,180,0.0,3.0,58,0.00,,,-99.99,,2013-01-21 01:32:00,
2013-01-20 18:43:00,25.0,13.0,-100.00,SSW,195,0.0,4.0,60,0.00,,,-99.99,,2013-01-21 01:43:00,
2013-01-20 18:52:00,24.0,12.0,-100.00,South,185,1.0,1.0,60,0.00,,,-99.99,,2013-01-21 01:52:00,
2013-01-20 19:02:00,23.0,12.0,-100.00,NW,320,0.0,1.0,62,0.00,,,-99.99,,2013-01-21 02:02:00,
2013-01-20 19:12:00,22.0,12.0,-100.00,NW,315,0.0,2.0,63,0.00,,,-99.99,,2013-01-21 02:12:00,
2013-01-20 19:22:00,22.0,13.0,-100.00,North,5,0.0,1.0,65,0.00,,,-99.99,,2013-01-21 02:22:00,
2013-01-20 19:33:00,22.0,13.0,-100.00,NW,325,0.0,1.0,67,0.00,,,-99.99,,2013-01-21 02:33:00,
2013-01-20 19:42:00,21.0,12.0,-100.00,SW,225,0.0,0.0,67,0.00,,,-99.99,,2013-01-21 02:42:00,
2013-01-20 19:52:00,21.0,13.0,-100.00,NW,315,0.0,2.0,69,0.00,,,-99.99,,2013-01-21 02:52:00,
2013-01-20 20:02:00,21.0,13.0,-100.00,SW,220,0.0,2.0,70,0.00,,,-99.99,,2013-01-21 03:02:00,
2013-01-20 20:12:00,21.0,13.0,-100.00,North,0,1.0,4.0,72,0.00,,,-99.99,,2013-01-21 03:12:00,
2013-01-20 20:23:00,22.0,15.0,-100.00,NW,315,1.0,3.0,72,0.00,,,-99.99,,2013-01-21 03:23:00,
2013-01-20 20:32:00,21.0,14.0,-100.00,NW,320,0.0,4.0,73,0.00,,,-99.99,,2013-01-21 03:32:00,
2013-01-20 20:42:00,20.0,13.0,-100.00,SW,225,0.0,1.0,73,0.00,,,-99.99,,2013-01-21 03:42:00,
2013-01-20 20:52:00,19.0,12.0,-100.00,East,85,0.0,2.0,74,0.00,,,-99.99,,2013-01-21 03:52:00,
2013-01-20 21:02:00,20.0,13.0,-100.00,NE,45,1.0,2.0,75,0.00,,,-99.99,,2013-01-21 04:02:00,
2013-01-20 21:12:00,20.0,13.0,-100.00,NE,50,1.0,3.0,76,0.00,,,-99.99,,2013-01-21 04:12:00,
2013-01-20 21:22:00,19.0,13.0,-100.00,SSW,210,0.0,2.0,76,0.00,,,-99.99,,2013-01-21 04:22:00,
2013-01-20 21:32:00,18.0,12.0,-100.00,NE,40,0.0,3.0,76,0.00,,,-99.99,,2013-01-21 04:32:00,
2013-01-20 21:42:00,17.0,11.0,-100.00,NE,55,0.0,0.0,77,0.00,,,-99.99,,2013-01-21 04:42:00,
2013-01-20 21:52:00,17.0,11.0,-100.00,NNE,25,1.0,2.0,78,0.00,,,-99.99,,2013-01-21 04:52:00,
2013-01-20 22:03:00,17.0,12.0,-100.00,WNW,290,0.0,1.0,79,0.00,,,-99.99,,2013-01-21 05:03:00,
2013-01-20 22:12:00,17.0,12.0,-100.00,NE,40,1.0,2.0,80,0.00,,,-99.99,,2013-01-21 05:12:00,
2013-01-20 22:22:00,17.0,12.0,-100.00,NW,325,1.0,2.0,80,0.00,,,-99.99,,2013-01-21 05:22:00,
2013-01-20 22:33:00,16.0,11.0,-100.00,WNW,300,0.0,1.0,81,0.00,,,-99.99,,2013-01-21 05:33:00,
2013-01-20 22:42:00,15.0,11.0,-100.00,NNE,15,0.0,1.0,81,0.00,,,-99.99,,2013-01-21 05:42:00,
2013-01-20 22:52:00,16.0,11.0,-100.00,SSE,150,0.0,1.0,82,0.00,,,-99.99,,2013-01-21 05:52:00,
2013-01-20 23:02:00,15.0,11.0,-100.00,NNE,30,1.0,2.0,83,0.00,,,-99.99,,2013-01-21 06:02:00,
2013-01-20 23:12:00,15.0,11.0,-100.00,SSW,195,0.0,1.0,83,0.00,,,-99.99,,2013-01-21 06:12:00,
2013-01-20 23:22:00,14.0,10.0,-100.00,ENE,65,0.0,1.0,84,0.00,,,-99.99,,2013-01-21 06:22:00,
2013-01-20 23:32:00,15.0,11.0,-100.00,NE,35,0.0,1.0,85,0.00,,,-99.99,,2013-01-21 06:32:00,
2013-01-20 23:42:00,14.0,11.0,-100.00,ENE,70,0.0,2.0,85,0.00,,,-99.99,,2013-01-21 06:42:00,
2013-01-20 23:52:00,14.0,11.0,-100.00,North,355,1.0,2.0,86,0.00,,,-99.99,,2013-01-21 06:52:00,